Home   Weather   Tampere   Past weeks

Flag for Finland Past Weather in Tampere, Finland — Yesterday and Last 2 Weeks

37 °F

Light rain. More clouds than sun.

Feels Like: 31 °F
Forecast: 35 / 38 °F
Wind: 9 mph from East

Location: Tampere / Pirkkala

Current Time: Oct 24, 2016 at 11:59:37 AM

Latest Report: Oct 24, 2016 at 11:20 AM

Visibility: N/A

Pressure: 30.60 "Hg

Humidity: 87%

Dew Point: 34 °F

Location of TampereLocation

Past Weather in Tampere — Graph


Tampere Temperature Yesterday

Maximum temperature yesterday: 41 °F (at 11:50 PM)
Minimum temperature yesterday: 36 °F (at 12:20 AM)
Average temperature yesterday: 38 °F

High & Low Weather Summary for the Past Weeks

High46 °F (Oct 10, 2:20 PM)100% (Oct 10, 1:20 AM)30.69 "Hg (Oct 10, 1:20 AM)
Low27 °F (Oct 11, 12:50 AM)60% (Oct 21, 2:50 PM)30.33 "Hg (Oct 19, 1:50 AM)
Average37 °F84%30.55 "Hg
* Reported Oct 9 10:20 AM — Oct 24 10:20 AM, Tampere, Weather by CustomWeather, © 2016

Note: Actual official high and low records may vary slightly from our data, if they occured in-between our weather recording intervals... More about our weather records


Tampere Weather History for the Previous 24 Hours

Scroll right to see more
Time TempWeatherWind HumidityBarometerVisibility
10:20 AM
Mon, Oct 24
37 °FLight rain. Overcast.8 mph87%30.60 "HgN/A
9:50 AM37 °FLight rain. Partly sunny.8 mph87%30.60 "HgN/A
9:20 AM37 °FBroken clouds.9 mph87%30.60 "HgN/A
8:50 AM37 °FBroken clouds.9 mph87%30.60 "HgN/A
8:20 AM37 °FOvercast.10 mph87%30.60 "HgN/A
7:50 AM37 °FClear.10 mph87%30.60 "Hg10 mi
7:20 AM36 °FPassing clouds.8 mph93%30.60 "HgN/A
6:50 AM37 °FPassing clouds.9 mph87%30.60 "HgN/A
6:20 AM37 °FLight rain. Partly cloudy.7 mph93%30.60 "HgN/A
5:50 AM37 °FLight rain. Overcast.8 mph87%30.60 "HgN/A
5:20 AM37 °FSprinkles. Mostly cloudy.8 mph87%30.60 "HgN/A
4:50 AM37 °FPartly cloudy.8 mph87%30.60 "HgN/A
4:20 AM39 °FLight rain. Passing clouds.8 mph81%30.60 "HgN/A
3:50 AM37 °FPassing clouds.6 mph87%30.60 "HgN/A
3:20 AM37 °FPartly cloudy.7 mph87%30.60 "HgN/A
2:50 AM37 °FPartly cloudy.7 mph93%30.60 "HgN/A
2:20 AM37 °FDrizzle. Mostly cloudy.7 mph93%30.60 "HgN/A
1:50 AM37 °FLight rain. Mostly cloudy.6 mph93%30.60 "HgN/A
1:20 AM37 °FLight rain. Mostly cloudy.6 mph93%30.60 "HgN/A
12:50 AM37 °FLight rain. Mostly cloudy.7 mph87%30.60 "HgN/A
12:20 AM39 °FLight rain. Mostly cloudy.10 mph81%30.60 "HgN/A
11:50 PM
Sun, Oct 23
41 °FMostly cloudy.9 mph70%30.60 "HgN/A
11:20 PM39 °FOvercast.10 mph75%30.60 "HgN/A
10:50 PM39 °FOvercast.9 mph75%30.60 "HgN/A
10:20 PM39 °FOvercast.9 mph75%30.57 "HgN/A
9:50 PM39 °FOvercast.9 mph75%30.57 "HgN/A
9:20 PM39 °FPassing clouds.9 mph75%30.57 "HgN/A
8:50 PM39 °FOvercast.9 mph75%30.57 "HgN/A
8:20 PM39 °FPassing clouds.9 mph75%30.57 "HgN/A
7:50 PM39 °FPartly cloudy.10 mph75%30.57 "HgN/A
7:20 PM39 °FPartly cloudy.10 mph75%30.57 "HgN/A
6:50 PM39 °FPartly cloudy.12 mph75%30.57 "HgN/A
6:20 PM39 °FPassing clouds.10 mph75%30.57 "HgN/A
5:50 PM39 °FPartly cloudy.10 mph70%30.57 "HgN/A
5:20 PM39 °FPartly sunny.10 mph70%30.57 "HgN/A
4:50 PM39 °FPartly sunny.12 mph70%30.57 "HgN/A
4:20 PM39 °FPartly sunny.13 mph70%30.57 "HgN/A
3:50 PM39 °FCloudy.15 mph70%30.57 "HgN/A
3:20 PM39 °FBroken clouds.13 mph70%30.57 "HgN/A
2:50 PM39 °FMore clouds than sun.14 mph70%30.57 "HgN/A
2:20 PM39 °FPartly sunny.13 mph75%30.57 "HgN/A
1:50 PM39 °FSunny.14 mph70%30.57 "Hg10 mi
1:20 PM39 °FSunny.13 mph75%30.57 "Hg10 mi
12:50 PM37 °FPartly sunny.12 mph75%30.60 "HgN/A
12:20 PM37 °FPartly sunny.12 mph81%30.60 "HgN/A
11:50 AM37 °FOvercast.13 mph75%30.60 "HgN/A
11:20 AM37 °FPartly sunny.13 mph75%30.57 "HgN/A
Weather by CustomWeather, © 2016

See weather overviewHow to use our weather pages